Weather History for Sanford, ME

Change the Weather History Date:

Friday, October 18, 2013

  Actual Average Record
Temperature  
Mean Temperature 54 °F -  
Max Temperature 66 °F 55 °F 78 °F (1998)
Min Temperature 41 °F 34 °F 23 °F (1996)
Degree Days  
Heating Degree Days 12    
Growing Degree Days 4 (Base 50)    
Moisture  
Dew Point 45 °F    
Average Humidity 67    
Maximum Humidity 94    
Minimum Humidity 42    
Precipitation  
Precipitation 0.11 in - - ()
Sea Level Pressure  
Sea Level Pressure 29.71 in    
Wind  
Wind Speed 6 mph (WSW)    
Max Wind Speed 21 mph    
Max Gust Speed 29 mph    
Visibility 9 miles    
Events      
Averages and records for this station are not official NWS values.
T = Trace of Precipitation, MM = Missing Value Source: NWS Daily Summary

Daily Weather History Graph

Daily Weather History Graph

Search for Another Location

Airport:

Trip Planner

Search our weather history database for the weather conditions in past years. The results will help you decide how hot, cold, wet, or windy it might be!

Date:

Astronomy

Oct. 18, 2013 Rise Set
Actual Time 7:00 AM EDT 5:54 PM EDT
Civil Twilight 6:31 AM EDT 6:23 PM EDT
Nautical Twilight 5:58 AM EDT 6:56 PM EDT
Astronomical Twilight 5:25 AM EDT 7:29 PM EDT
Moon 5:41 PM EDT (10/18) 6:32 AM EDT (10/18)
Length of Visible Light 11h 51m
Length of Day
10h 53m
Full, 100% of the Moon is Illuminated
Oct 18
Full
Oct 18
Full
Oct 26
Last Quarter
Nov 3
New
Nov 10
First Quarter

Hourly Weather History & Observations

Time (EDT) Temp. Windchill Dew Point Humidity Pressure Visibility Wind Dir Wind Speed Gust Speed Precip Events Conditions
12:15 AM 51.8 °F - 46.4 °F 82% 29.71 in 10.0 mi Calm Calm - N/A   Overcast
12:35 AM 51.8 °F - 46.4 °F 82% 29.73 in 10.0 mi WSW 5.8 mph - N/A   Overcast
12:55 AM 53.6 °F - 46.4 °F 77% 29.73 in 10.0 mi Calm Calm - N/A   Overcast
1:15 AM 53.6 °F - 48.2 °F 82% 29.71 in 10.0 mi NNE 5.8 mph - N/A   Overcast
1:35 AM 53.6 °F - 48.2 °F 82% 29.68 in 10.0 mi NNE 5.8 mph - N/A   Overcast
1:55 AM 53.6 °F - 48.2 °F 82% 29.68 in 10.0 mi Calm Calm - N/A   Mostly Cloudy
2:15 AM 53.6 °F - 48.2 °F 82% 29.68 in 8.0 mi South 5.8 mph - 0.01 in   Mostly Cloudy
2:35 AM 53.6 °F - 48.2 °F 82% 29.66 in 10.0 mi South 3.5 mph - 0.01 in   Overcast
2:55 AM 53.6 °F - 48.2 °F 82% 29.65 in 10.0 mi Calm Calm - 0.01 in   Overcast
3:15 AM 53.6 °F - 48.2 °F 82% 29.65 in 4.0 mi Calm Calm - 0.06 in   Overcast
3:35 AM 53.6 °F - 48.2 °F 82% 29.63 in 10.0 mi SE 3.5 mph - 0.06 in   Overcast
3:55 AM 53.6 °F - 48.2 °F 82% 29.62 in 4.0 mi Calm Calm - 0.09 in   Overcast
4:15 AM 53.6 °F - 50.0 °F 88% 29.61 in 5.0 mi Calm Calm - 0.01 in   Overcast
4:35 AM 53.6 °F - 50.0 °F 88% 29.60 in 4.0 mi Calm Calm - 0.01 in   Overcast
4:55 AM 53.6 °F - 51.8 °F 94% 29.60 in 4.0 mi Calm Calm - 0.01 in   Overcast
5:15 AM 55.4 °F - 51.8 °F 88% 29.59 in 4.0 mi Calm Calm - N/A   Overcast
5:35 AM 55.4 °F - 51.8 °F 88% 29.58 in 4.0 mi Calm Calm - N/A   Overcast
5:55 AM 59.0 °F - 55.4 °F 88% 29.58 in 5.0 mi South 6.9 mph - N/A   Overcast
6:15 AM 59.0 °F - 55.4 °F 88% 29.58 in 5.0 mi SSW 8.1 mph - N/A   Overcast
6:35 AM 60.8 °F - 55.4 °F 82% 29.58 in 5.0 mi SW 6.9 mph - N/A   Overcast
6:55 AM 60.8 °F - 55.4 °F 82% 29.58 in 7.0 mi WSW 20.7 mph 28.8 mph N/A   Overcast
7:15 AM 59.0 °F - 55.4 °F 88% 29.60 in 10.0 mi West 10.4 mph - N/A   Mostly Cloudy
7:35 AM 57.2 °F - 53.6 °F 88% 29.61 in 10.0 mi WSW 6.9 mph - N/A   Partly Cloudy
7:55 AM 57.2 °F - 51.8 °F 82% 29.62 in 10.0 mi West 10.4 mph - N/A   Partly Cloudy
8:15 AM 57.2 °F - 51.8 °F 82% 29.63 in 10.0 mi West 10.4 mph - N/A   Partly Cloudy
8:35 AM 57.2 °F - 51.8 °F 82% 29.63 in 10.0 mi West 9.2 mph - N/A   Clear
8:55 AM 59.0 °F - 51.8 °F 77% 29.64 in 10.0 mi West 13.8 mph 19.6 mph N/A   Clear
9:15 AM 60.8 °F - 51.8 °F 72% 29.65 in 10.0 mi West 12.7 mph 19.6 mph N/A   Clear
9:35 AM 60.8 °F - 50.0 °F 68% 29.65 in 10.0 mi West 13.8 mph 20.7 mph N/A   Clear
9:55 AM 60.8 °F - 50.0 °F 68% 29.67 in 10.0 mi West 15.0 mph 21.9 mph N/A   Clear
10:15 AM 62.6 °F - 48.2 °F 59% 29.67 in 10.0 mi West 11.5 mph 21.9 mph N/A   Clear
10:35 AM 62.6 °F - 48.2 °F 59% 29.68 in 10.0 mi West 11.5 mph 17.3 mph N/A   Scattered Clouds
10:55 AM 62.6 °F - 48.2 °F 59% 29.68 in 10.0 mi West 15.0 mph 19.6 mph N/A   Scattered Clouds
11:15 AM 64.4 °F - 46.4 °F 52% 29.69 in 10.0 mi West 12.7 mph - N/A   Mostly Cloudy
11:35 AM 62.6 °F - 44.6 °F 52% 29.69 in 10.0 mi West 16.1 mph 24.2 mph N/A   Overcast
11:55 AM 62.6 °F - 44.6 °F 52% 29.69 in 10.0 mi WNW 12.7 mph 20.7 mph N/A   Overcast
12:15 PM 64.4 °F - 44.6 °F 49% 29.69 in 10.0 mi WNW 15.0 mph 20.7 mph N/A   Mostly Cloudy
12:35 PM 64.4 °F - 42.8 °F 45% 29.69 in 10.0 mi West 16.1 mph 24.2 mph N/A   Mostly Cloudy
12:55 PM 64.4 °F - 44.6 °F 49% 29.69 in 10.0 mi WNW 13.8 mph 21.9 mph N/A   Scattered Clouds
1:15 PM 64.4 °F - 42.8 °F 45% 29.70 in 10.0 mi West 15.0 mph 25.3 mph N/A   Partly Cloudy
1:35 PM 64.4 °F - 42.8 °F 45% 29.70 in 10.0 mi West 17.3 mph 25.3 mph N/A   Partly Cloudy
1:55 PM 64.4 °F - 41.0 °F 42% 29.70 in 10.0 mi WNW 15.0 mph 21.9 mph N/A   Partly Cloudy
2:15 PM 64.4 °F - 41.0 °F 42% 29.70 in 10.0 mi West 11.5 mph 25.3 mph N/A   Mostly Cloudy
2:35 PM 66.2 °F - 42.8 °F 43% 29.71 in 10.0 mi West 16.1 mph 28.8 mph N/A   Mostly Cloudy
2:55 PM 66.2 °F - 42.8 °F 43% 29.71 in 10.0 mi West 17.3 mph 25.3 mph N/A   Mostly Cloudy
3:15 PM 64.4 °F - 41.0 °F 42% 29.72 in 10.0 mi West 17.3 mph 24.2 mph N/A   Scattered Clouds
3:35 PM 62.6 °F - 41.0 °F 45% 29.72 in 10.0 mi West 12.7 mph 20.7 mph N/A   Clear
3:55 PM 64.4 °F - 41.0 °F 42% 29.73 in 10.0 mi WSW 18.4 mph 26.5 mph N/A   Scattered Clouds
4:15 PM 64.4 °F - 41.0 °F 42% 29.74 in 10.0 mi West 12.7 mph 24.2 mph N/A   Scattered Clouds
4:35 PM 62.6 °F - 39.2 °F 42% 29.74 in 10.0 mi West 16.1 mph 21.9 mph N/A   Partly Cloudy
4:55 PM 62.6 °F - 41.0 °F 45% 29.74 in 10.0 mi West 15.0 mph 20.7 mph N/A   Clear
5:15 PM 62.6 °F - 41.0 °F 45% 29.75 in 10.0 mi WSW 8.1 mph - N/A   Clear
5:35 PM 60.8 °F - 41.0 °F 48% 29.76 in 10.0 mi WSW 10.4 mph 19.6 mph N/A   Clear
5:55 PM 59.0 °F - 41.0 °F 51% 29.76 in 10.0 mi WSW 10.4 mph - N/A   Clear
6:15 PM 57.2 °F - 41.0 °F 55% 29.77 in 10.0 mi WSW 9.2 mph - N/A   Clear
6:35 PM 55.4 °F - 41.0 °F 58% 29.77 in 10.0 mi WSW 6.9 mph - N/A   Clear
6:55 PM 55.4 °F - 41.0 °F 58% 29.78 in 10.0 mi SW 4.6 mph - N/A   Clear
7:15 PM 53.6 °F - 41.0 °F 62% 29.79 in 10.0 mi SW 5.8 mph - N/A   Clear
7:35 PM 53.6 °F - 41.0 °F 62% 29.79 in 10.0 mi SW 6.9 mph - N/A   Clear
7:55 PM 55.4 °F - 41.0 °F 58% 29.80 in 10.0 mi WSW 10.4 mph - N/A   Clear
8:15 PM 53.6 °F - 39.2 °F 58% 29.81 in 10.0 mi WSW 8.1 mph - N/A   Clear
8:35 PM 53.6 °F - 39.2 °F 58% 29.82 in 10.0 mi WSW 4.6 mph - N/A   Clear
8:55 PM 50.0 °F - 39.2 °F 66% 29.82 in 10.0 mi Calm Calm - N/A   Clear
9:15 PM 48.2 °F - 39.2 °F 71% 29.83 in 10.0 mi South 3.5 mph - N/A   Clear
9:35 PM 46.4 °F - 39.2 °F 76% 29.83 in 10.0 mi Calm Calm - N/A   Clear
9:55 PM 44.6 °F - 39.2 °F 81% 29.84 in 10.0 mi Calm Calm - N/A   Clear
10:15 PM 42.8 °F 41.1 °F 37.4 °F 81% 29.85 in 10.0 mi West 3.5 mph - N/A   Clear
10:35 PM 41.0 °F 39.0 °F 37.4 °F 87% 29.86 in 10.0 mi SSW 3.5 mph - N/A   Clear
10:55 PM 42.8 °F 41.1 °F 37.4 °F 81% 29.86 in 10.0 mi SSW 3.5 mph - N/A   Clear
11:15 PM 44.6 °F 40.7 °F 37.4 °F 76% 29.86 in 10.0 mi WSW 6.9 mph - N/A   Clear
11:35 PM 46.4 °F 44.3 °F 37.4 °F 71% 29.86 in 10.0 mi WSW 4.6 mph - N/A   Clear
11:55 PM 46.4 °F 44.3 °F 37.4 °F 71% 29.87 in 10.0 mi WSW 4.6 mph - N/A   Clear